TimeEST,TemperatureF,Dew PointF,Humidity,Sea Level PressureIn,VisibilityMPH,Wind Direction,Wind SpeedMPH,Gust SpeedMPH,PrecipitationIn,Events,Conditions,WindDirDegrees,DateUTC
12:15 AM,44.6,42.8,93,30.02,5.0,SSW,4.6,-,N/A,,Overcast,200,2012-12-03 05:15:00
12:35 AM,44.6,42.8,93,30.01,5.0,South,4.6,-,N/A,,Overcast,190,2012-12-03 05:35:00
12:55 AM,44.6,42.8,93,30.01,5.0,South,5.8,-,N/A,,Overcast,180,2012-12-03 05:55:00
1:15 AM,44.6,42.8,93,30.03,4.0,South,4.6,-,N/A,,Overcast,190,2012-12-03 06:15:00
1:35 AM,44.6,42.8,93,30.02,3.0,SW,3.5,-,N/A,,Overcast,220,2012-12-03 06:35:00
1:55 AM,44.6,42.8,93,30.02,2.5,SW,5.8,-,N/A,,Overcast,220,2012-12-03 06:55:00
2:15 AM,44.6,42.8,93,30.03,3.0,SW,4.6,-,N/A,,Overcast,220,2012-12-03 07:15:00
2:35 AM,42.8,41.0,93,30.02,1.5,Calm,Calm,-,N/A,,Overcast,0,2012-12-03 07:35:00
2:55 AM,44.6,42.8,93,30.03,2.0,Calm,Calm,-,N/A,,Overcast,0,2012-12-03 07:55:00
3:15 AM,44.6,42.8,93,30.03,2.0,Calm,Calm,-,N/A,,Overcast,0,2012-12-03 08:15:00
3:35 AM,44.6,42.8,93,30.03,2.5,Calm,Calm,-,N/A,,Overcast,0,2012-12-03 08:35:00
3:55 AM,42.8,42.8,100,30.03,1.5,Calm,Calm,-,N/A,,Overcast,0,2012-12-03 08:55:00
4:15 AM,44.6,42.8,93,30.05,2.0,Calm,Calm,-,N/A,,Overcast,0,2012-12-03 09:15:00
4:35 AM,44.6,42.8,93,30.05,2.5,South,6.9,-,N/A,,Overcast,180,2012-12-03 09:35:00
4:55 AM,44.6,41.0,87,30.05,2.5,Calm,Calm,-,N/A,,Overcast,0,2012-12-03 09:55:00
5:15 AM,42.8,41.0,93,30.06,2.5,Calm,Calm,-,N/A,,Overcast,0,2012-12-03 10:15:00
5:35 AM,42.8,41.0,93,30.06,1.5,South,3.5,-,N/A,,Overcast,170,2012-12-03 10:35:00
5:55 AM,42.8,39.2,87,30.06,1.5,SW,5.8,-,N/A,,Overcast,230,2012-12-03 10:55:00
6:15 AM,42.8,41.0,93,30.06,2.0,SSW,4.6,-,N/A,,Overcast,210,2012-12-03 11:15:00
6:35 AM,44.6,42.8,93,30.07,3.0,Calm,Calm,-,N/A,,Overcast,0,2012-12-03 11:35:00
6:55 AM,44.6,42.8,93,30.08,2.5,Calm,Calm,-,N/A,,Overcast,0,2012-12-03 11:55:00
7:15 AM,44.6,42.8,93,30.09,3.0,West,3.5,-,N/A,,Overcast,260,2012-12-03 12:15:00
7:35 AM,44.6,42.8,93,30.10,3.0,WSW,5.8,-,N/A,,Overcast,240,2012-12-03 12:35:00
7:55 AM,44.6,42.8,93,30.11,4.0,SSW,5.8,-,N/A,,Overcast,210,2012-12-03 12:55:00
8:15 AM,48.2,42.8,82,30.13,10.0,West,6.9,-,N/A,,Overcast,270,2012-12-03 13:15:00
8:35 AM,48.2,41.0,76,30.13,10.0,West,6.9,-,N/A,,Overcast,270,2012-12-03 13:35:00
8:55 AM,48.2,41.0,76,30.14,10.0,Calm,Calm,-,N/A,,Mostly Cloudy,0,2012-12-03 13:55:00
9:15 AM,50.0,41.0,71,30.14,10.0,West,5.8,-,N/A,,Mostly Cloudy,280,2012-12-03 14:15:00
9:35 AM,51.8,39.2,62,30.15,10.0,West,8.1,-,N/A,,Overcast,280,2012-12-03 14:35:00
9:55 AM,51.8,39.2,62,30.16,10.0,NW,8.1,-,N/A,,Overcast,310,2012-12-03 14:55:00
10:15 AM,51.8,39.2,62,30.17,10.0,WNW,8.1,-,N/A,,Mostly Cloudy,290,2012-12-03 15:15:00
10:35 AM,51.8,39.2,62,30.17,10.0,NW,10.4,16.1,N/A,,Overcast,320,2012-12-03 15:35:00
10:55 AM,51.8,39.2,62,30.16,10.0,WNW,8.1,-,N/A,,Overcast,300,2012-12-03 15:55:00
11:15 AM,53.6,39.2,58,30.16,10.0,NW,6.9,-,N/A,,Overcast,310,2012-12-03 16:15:00
11:35 AM,51.8,39.2,62,30.16,10.0,NW,6.9,-,N/A,,Mostly Cloudy,320,2012-12-03 16:35:00
11:55 AM,51.8,39.2,62,30.17,10.0,NNW,6.9,-,N/A,,Mostly Cloudy,340,2012-12-03 16:55:00
12:15 PM,53.6,39.2,58,30.17,10.0,NW,10.4,-,N/A,,Mostly Cloudy,310,2012-12-03 17:15:00
12:35 PM,53.6,39.2,58,30.16,10.0,North,9.2,-,N/A,,Scattered Clouds,350,2012-12-03 17:35:00
12:55 PM,53.6,39.2,58,30.16,10.0,North,11.5,-,N/A,,Partly Cloudy,360,2012-12-03 17:55:00
1:15 PM,53.6,37.4,54,30.16,10.0,North,10.4,16.1,N/A,,Partly Cloudy,360,2012-12-03 18:15:00
1:35 PM,53.6,37.4,54,30.17,10.0,NNW,10.4,-,N/A,,Clear,340,2012-12-03 18:35:00
2:15 PM,53.6,37.4,54,30.17,10.0,North,8.1,-,N/A,,Clear,360,2012-12-03 19:15:00
2:35 PM,53.6,39.2,58,30.18,10.0,North,9.2,-,N/A,,Clear,10,2012-12-03 19:35:00
2:55 PM,51.8,37.4,58,30.18,10.0,North,9.2,-,N/A,,Clear,10,2012-12-03 19:55:00
3:15 PM,50.0,37.4,62,30.18,10.0,North,8.1,-,N/A,,Clear,360,2012-12-03 20:15:00
3:35 PM,48.2,37.4,66,30.19,10.0,North,6.9,-,N/A,,Clear,350,2012-12-03 20:35:00
3:55 PM,48.2,37.4,66,30.20,10.0,Calm,Calm,-,N/A,,Clear,0,2012-12-03 20:55:00
4:15 PM,46.4,37.4,71,30.20,10.0,Calm,Calm,-,N/A,,Clear,0,2012-12-03 21:15:00
4:35 PM,42.8,37.4,81,30.21,10.0,Calm,Calm,-,N/A,,Clear,0,2012-12-03 21:35:00
4:55 PM,41.0,37.4,87,30.21,10.0,Calm,Calm,-,N/A,,Clear,0,2012-12-03 21:55:00
5:15 PM,39.2,35.6,87,30.22,10.0,Calm,Calm,-,N/A,,Clear,0,2012-12-03 22:15:00
5:35 PM,37.4,35.6,93,30.23,10.0,Calm,Calm,-,N/A,,Clear,0,2012-12-03 22:35:00
5:55 PM,37.4,35.6,93,30.24,10.0,South,3.5,-,N/A,,Clear,190,2012-12-03 22:55:00
6:15 PM,37.4,33.8,87,30.24,10.0,Calm,Calm,-,N/A,,Clear,0,2012-12-03 23:15:00
6:35 PM,35.6,35.6,100,30.25,5.0,Calm,Calm,-,N/A,,Clear,0,2012-12-03 23:35:00
6:55 PM,35.6,33.8,93,30.26,8.0,Calm,Calm,-,N/A,,Clear,0,2012-12-03 23:55:00
7:15 PM,33.8,32.0,93,30.26,0.8,Calm,Calm,-,N/A,,Unknown,0,2012-12-04 00:15:00
7:35 PM,33.8,30.2,87,30.27,0.8,Calm,Calm,-,N/A,,Unknown,0,2012-12-04 00:35:00
7:55 PM,33.8,30.2,87,30.27,0.5,Calm,Calm,-,N/A,,Unknown,0,2012-12-04 00:55:00
8:15 PM,33.8,30.2,87,30.28,0.5,Calm,Calm,-,N/A,,Mostly Cloudy,0,2012-12-04 01:15:00
8:35 PM,33.8,32.0,93,30.28,1.5,Calm,Calm,-,N/A,,Scattered Clouds,0,2012-12-04 01:35:00
8:55 PM,30.2,28.4,93,30.28,0.5,Calm,Calm,-,N/A,,Mostly Cloudy,0,2012-12-04 01:55:00
9:15 PM,30.2,28.4,93,30.28,0.5,Calm,Calm,-,N/A,,Unknown,0,2012-12-04 02:15:00
9:35 PM,28.4,26.6,93,30.28,0.5,Calm,Calm,-,N/A,,Mostly Cloudy,0,2012-12-04 02:35:00
9:55 PM,30.2,28.4,93,30.28,2.0,Calm,Calm,-,N/A,,Mostly Cloudy,0,2012-12-04 02:55:00
10:15 PM,30.2,28.4,93,30.29,0.5,South,4.6,-,N/A,,Overcast,170,2012-12-04 03:15:00
10:35 PM,30.2,28.4,93,30.29,0.2,Calm,Calm,-,N/A,,Overcast,0,2012-12-04 03:35:00
10:55 PM,30.2,28.4,93,30.29,0.2,Calm,Calm,-,N/A,,Overcast,0,2012-12-04 03:55:00
11:15 PM,30.2,28.4,93,30.29,0.5,Calm,Calm,-,N/A,,Overcast,0,2012-12-04 04:15:00
11:35 PM,30.2,28.4,93,30.30,0.2,Calm,Calm,-,N/A,,Overcast,0,2012-12-04 04:35:00
11:55 PM,30.2,28.4,93,30.30,0.2,South,3.5,-,N/A,,Overcast,180,2012-12-04 04:55:00